Location: Alexandria
(38.8050°N, 77.0470°W)
Time: 15:37:49
(UTC-05:00)

Tiangong 1 - Pass Details

Date: 12 February 2018
Orbit: 246 x 267 km, 42.8° (Epoch: 23 February)

Event Time Altitude Azimuth Distance (km) Brightness Sun altitude
Exits shadow 06:09:01 19° 312° (NW) 700 1.9 -11.1°
Maximum altitude 06:10:05 28° 357° (N) 528 1.6 -10.9°
Drops below altitude 10° 06:12:11 10° 61° (ENE) 1,051 4.1 -10.5°
Sets 06:14:13 0° 74° (ENE) 1,865 5.9 -10.1°
